RYR1234 EPGD-EGNM

Flight info

Callsign RYR1234
Flight time 2h 3m
Altitude 30000
Route DEXIR T671 AGODU DCT BINKA L23 LEGSA DCT BERIM DCT MIMVA DCT OTBED Y70 GOLES
Aircraft B38M/M-SDE1FGHILORVWXY/HB1

Departure

Time 2026-05-03 21:37
Airport Gdańsk Lech Wałęsa Airport (EPGD)

Arrival

Time 2026-05-03 23:41
Airport Leeds Bradford Airport (EGNM)
Time Latitude Longitude Altitude Speed Heading
2026-05-03 20:32 54.38221 18.46188 462 ft 0 kts 23°
2026-05-03 21:15 54.38200 18.46177 461 ft 4 kts
2026-05-03 21:15 54.38177 18.46187 458 ft 4 kts 314°
2026-05-03 21:16 54.38169 18.46207 458 ft 2 kts 290°
2026-05-03 21:17 54.38169 18.46208 458 ft 0 kts 290°
2026-05-03 21:21 54.38175 18.46179 460 ft 5 kts 288°
2026-05-03 21:22 54.38178 18.46151 458 ft 0 kts 275°
2026-05-03 21:26 54.38176 18.46136 462 ft 7 kts 251°
2026-05-03 21:26 54.38090 18.46078 462 ft 13 kts 163°
2026-05-03 21:27 54.38052 18.46161 462 ft 15 kts 112°
2026-05-03 21:27 54.37989 18.46415 460 ft 19 kts 113°
2026-05-03 21:27 54.37936 18.46628 462 ft 20 kts 113°
2026-05-03 21:27 54.37880 18.46852 462 ft 21 kts 113°
2026-05-03 21:28 54.37841 18.47007 462 ft 22 kts 112°
2026-05-03 21:28 54.37781 18.47253 462 ft 23 kts 113°
2026-05-03 21:28 54.37761 18.47335 459 ft 2 kts 113°
2026-05-03 21:28 54.37753 18.47365 462 ft 2 kts 112°
2026-05-03 21:29 54.37711 18.47537 465 ft 25 kts 114°
2026-05-03 21:29 54.37679 18.47664 468 ft 4 kts 113°
2026-05-03 21:29 54.37636 18.47836 471 ft 26 kts 113°
2026-05-03 21:29 54.37575 18.48085 472 ft 7 kts 113°
2026-05-03 21:30 54.37572 18.48097 474 ft 0 kts 113°
2026-05-03 21:30 54.37543 18.48211 477 ft 16 kts 113°
2026-05-03 21:30 54.37494 18.48412 484 ft 19 kts 112°
2026-05-03 21:31 54.37448 18.48600 488 ft 7 kts 112°
2026-05-03 21:31 54.37430 18.48670 488 ft 6 kts 112°
2026-05-03 21:31 54.37411 18.48751 489 ft 19 kts 112°
2026-05-03 21:31 54.37341 18.49031 488 ft 26 kts 114°
2026-05-03 21:32 54.37301 18.49191 489 ft 9 kts 114°
2026-05-03 21:32 54.37281 18.49249 496 ft 4 kts 140°
2026-05-03 21:32 54.37261 18.49266 499 ft 0 kts 164°
2026-05-03 21:33 54.37229 18.49271 499 ft 8 kts 194°
2026-05-03 21:33 54.37220 18.49264 499 ft 0 kts 207°
2026-05-03 21:35 54.37164 18.49184 493 ft 18 kts 229°
2026-05-03 21:36 54.37155 18.49052 497 ft 1 kts 290°
2026-05-03 21:36 54.37156 18.49050 497 ft 0 kts 290°
2026-05-03 21:36 54.37174 18.48973 488 ft 30 kts 292°
2026-05-03 21:37 54.37370 18.48178 483 ft 113 kts 293°
2026-05-03 21:37 54.37767 18.46553 486 ft 175 kts 292°
2026-05-03 21:37 54.38268 18.44487 962 ft 203 kts 292°
2026-05-03 21:37 54.38826 18.42196 1503 ft 216 kts 289°
2026-05-03 21:38 54.39422 18.39736 2337 ft 230 kts 290°
2026-05-03 21:38 54.40070 18.37108 2945 ft 247 kts 291°
2026-05-03 21:38 54.40735 18.34404 3796 ft 249 kts 290°
2026-05-03 21:38 54.41422 18.31591 4451 ft 253 kts 290°
2026-05-03 21:39 54.42100 18.28805 4909 ft 253 kts 290°
2026-05-03 21:39 54.42758 18.26042 5356 ft 254 kts 286°
2026-05-03 21:39 54.42922 18.23063 5730 ft 251 kts 259°
2026-05-03 21:39 54.42264 18.20311 6189 ft 253 kts 234°
2026-05-03 21:40 54.40958 18.18280 6649 ft 257 kts 212°
2026-05-03 21:40 54.39332 18.16954 7120 ft 261 kts 207°
2026-05-03 21:40 54.37666 18.15688 7583 ft 263 kts 206°
2026-05-03 21:40 54.36042 18.14277 8024 ft 261 kts 219°
2026-05-03 21:41 54.34912 18.11899 8461 ft 259 kts 244°
2026-05-03 21:41 54.34229 18.09021 8983 ft 262 kts 248°
2026-05-03 21:41 54.33579 18.06096 9453 ft 263 kts 249°
2026-05-03 21:41 54.32948 18.03175 9894 ft 264 kts 249°
2026-05-03 21:42 54.32317 18.00207 10339 ft 266 kts 250°
2026-05-03 21:42 54.31691 17.97227 10784 ft 267 kts 250°
2026-05-03 21:42 54.31062 17.94219 11217 ft 270 kts 250°
2026-05-03 21:42 54.30430 17.91185 11605 ft 273 kts 250°
2026-05-03 21:43 54.29769 17.88012 11969 ft 293 kts 250°
2026-05-03 21:43 54.29065 17.84628 12422 ft 310 kts 250°
2026-05-03 21:43 54.28443 17.81033 13091 ft 316 kts 254°
2026-05-03 21:43 54.27859 17.77426 14034 ft 315 kts 253°
2026-05-03 21:44 54.27260 17.73781 14676 ft 321 kts 253°
2026-05-03 21:44 54.26648 17.70089 15378 ft 324 kts 253°
2026-05-03 21:44 54.26022 17.66336 15814 ft 331 kts 253°
2026-05-03 21:44 54.25395 17.62586 15888 ft 330 kts 253°
2026-05-03 21:45 54.24762 17.58811 15904 ft 330 kts 253°
2026-05-03 21:45 54.24045 17.55103 15864 ft 329 kts 245°
2026-05-03 21:45 54.23044 17.51590 15968 ft 330 kts 245°
2026-05-03 21:45 54.22086 17.48082 15920 ft 330 kts 245°
2026-05-03 21:46 54.21123 17.44504 16239 ft 332 kts 245°
2026-05-03 21:46 54.20155 17.40878 16999 ft 333 kts 245°
2026-05-03 21:46 54.19206 17.37304 17625 ft 337 kts 245°
2026-05-03 21:46 54.18237 17.33651 18282 ft 339 kts 245°
2026-05-03 21:47 54.17259 17.29964 18828 ft 343 kts 245°
2026-05-03 21:47 54.16271 17.26242 19361 ft 346 kts 245°
2026-05-03 21:47 54.15274 17.22494 19891 ft 350 kts 245°
2026-05-03 21:47 54.14264 17.18702 20417 ft 353 kts 245°
2026-05-03 21:48 54.13242 17.14873 20933 ft 357 kts 245°
2026-05-03 21:48 54.12204 17.10987 21376 ft 362 kts 245°
2026-05-03 21:48 54.11156 17.07074 21975 ft 363 kts 245°
2026-05-03 21:48 54.10108 17.03141 22456 ft 367 kts 247°
2026-05-03 21:49 54.09456 16.98920 22999 ft 369 kts 258°
2026-05-03 21:49 54.08972 16.94619 23483 ft 373 kts 257°
2026-05-03 21:49 54.08470 16.90255 23862 ft 376 kts 257°
2026-05-03 21:49 54.07973 16.85877 24292 ft 378 kts 257°
2026-05-03 21:50 54.07476 16.81485 24637 ft 382 kts 257°
2026-05-03 21:50 54.06970 16.77016 25011 ft 385 kts 257°
2026-05-03 21:50 54.06461 16.72527 25431 ft 387 kts 257°
2026-05-03 21:50 54.05948 16.68013 25823 ft 390 kts 258°
2026-05-03 21:51 54.05430 16.63475 26211 ft 392 kts 258°
2026-05-03 21:51 54.04906 16.58905 26599 ft 394 kts 258°
2026-05-03 21:51 54.04378 16.54314 26993 ft 396 kts 257°
2026-05-03 21:51 54.03847 16.49713 27413 ft 397 kts 257°
2026-05-03 21:52 54.03311 16.45084 27772 ft 400 kts 257°
2026-05-03 21:52 54.02774 16.40454 28099 ft 402 kts 257°
2026-05-03 21:52 54.02227 16.35766 28455 ft 405 kts 257°
2026-05-03 21:52 54.01676 16.31059 28792 ft 407 kts 257°
2026-05-03 21:53 54.01121 16.26332 29123 ft 409 kts 257°
2026-05-03 21:53 54.00559 16.21570 29450 ft 412 kts 257°
2026-05-03 21:53 53.99993 16.16783 29769 ft 414 kts 257°
2026-05-03 21:53 53.99422 16.11977 30062 ft 416 kts 257°
2026-05-03 21:54 53.98846 16.07145 30334 ft 418 kts 257°
2026-05-03 21:54 53.98266 16.02293 30625 ft 420 kts 257°
2026-05-03 21:54 53.97686 15.97465 30982 ft 419 kts 257°
2026-05-03 21:54 53.97102 15.92618 31389 ft 418 kts 257°
2026-05-03 21:55 53.96520 15.87807 31783 ft 416 kts 257°
2026-05-03 21:55 53.95938 15.83006 32134 ft 415 kts 257°
2026-05-03 21:55 53.95353 15.78204 32475 ft 415 kts 257°
2026-05-03 21:55 53.94769 15.73422 32799 ft 414 kts 257°
2026-05-03 21:56 53.94180 15.68626 32918 ft 415 kts 257°
2026-05-03 21:56 53.93592 15.63843 32885 ft 412 kts 257°
2026-05-03 21:56 53.92418 15.54357 32893 ft 412 kts 257°
2026-05-03 21:57 53.91235 15.44855 32890 ft 412 kts 257°
2026-05-03 21:57 53.90042 15.35348 32890 ft 412 kts 257°
2026-05-03 21:58 53.88843 15.25852 32890 ft 412 kts 256°
2026-05-03 21:58 53.87639 15.16384 32891 ft 412 kts 256°
2026-05-03 21:59 53.86432 15.06959 32891 ft 412 kts 256°
2026-05-03 21:59 53.85201 14.97409 32889 ft 412 kts 256°
2026-05-03 22:00 53.83980 14.87999 32886 ft 412 kts 256°
2026-05-03 22:00 53.82744 14.78533 32894 ft 412 kts 256°
2026-05-03 22:01 53.81500 14.69073 32883 ft 413 kts 256°
2026-05-03 22:01 53.80247 14.59605 32888 ft 413 kts 256°
2026-05-03 22:02 53.78986 14.50129 32885 ft 413 kts 256°
2026-05-03 22:02 53.77722 14.40674 32882 ft 413 kts 256°
2026-05-03 22:03 53.76452 14.31237 32887 ft 413 kts 256°
2026-05-03 22:03 53.75994 14.26458 32858 ft 415 kts 268°
2026-05-03 22:03 53.76109 14.21593 32934 ft 415 kts 268°
2026-05-03 22:04 53.76136 14.11855 32892 ft 413 kts 268°
2026-05-03 22:04 53.76168 14.02140 32881 ft 413 kts 268°
2026-05-03 22:05 53.76194 13.92426 32881 ft 413 kts 267°
2026-05-03 22:05 53.76212 13.82724 32879 ft 414 kts 267°
2026-05-03 22:06 53.76243 13.72999 32878 ft 414 kts 268°
2026-05-03 22:06 53.76264 13.63292 32895 ft 412 kts 267°
2026-05-03 22:07 53.76246 13.53766 32883 ft 410 kts 266°
2026-05-03 22:07 53.76160 13.44151 32875 ft 410 kts 266°
2026-05-03 22:08 53.76059 13.34517 32873 ft 410 kts 266°
2026-05-03 22:08 53.75951 13.24863 32863 ft 411 kts 266°
2026-05-03 22:09 53.75835 13.15180 32871 ft 412 kts 266°
2026-05-03 22:10 53.75648 13.00725 32873 ft 410 kts 265°
2026-05-03 22:10 53.75513 12.91080 32872 ft 410 kts 265°
2026-05-03 22:11 53.75372 12.81452 32874 ft 410 kts 265°
2026-05-03 22:11 53.75223 12.71808 32870 ft 410 kts 265°
2026-05-03 22:12 53.75069 12.62184 32869 ft 410 kts 265°
2026-05-03 22:12 53.74906 12.52563 32866 ft 409 kts 265°
2026-05-03 22:13 53.74737 12.43015 32865 ft 409 kts 265°
2026-05-03 22:13 53.74560 12.33398 32861 ft 409 kts 265°
2026-05-03 22:14 53.74374 12.23789 32861 ft 409 kts 264°
2026-05-03 22:14 53.74182 12.14187 32874 ft 409 kts 264°
2026-05-03 22:15 53.73981 12.04573 32904 ft 409 kts 264°
2026-05-03 22:15 53.73773 11.94978 32887 ft 409 kts 264°
2026-05-03 22:16 53.73594 11.86988 32886 ft 409 kts 264°
2026-05-03 22:16 53.73371 11.77394 32882 ft 409 kts 264°
2026-05-03 22:17 53.73142 11.67829 32883 ft 409 kts 264°
2026-05-03 22:17 53.72905 11.58213 32886 ft 410 kts 263°
2026-05-03 22:18 53.72662 11.48611 32896 ft 409 kts 263°
2026-05-03 22:18 53.72254 11.39049 32884 ft 408 kts 261°
2026-05-03 22:19 53.71842 11.29504 32878 ft 408 kts 261°
2026-05-03 22:19 53.71426 11.19945 32881 ft 408 kts 261°
2026-05-03 22:20 53.71003 11.10382 32888 ft 409 kts 261°
2026-05-03 22:20 53.70571 11.00823 32884 ft 408 kts 261°
2026-05-03 22:21 53.70136 10.91331 32896 ft 405 kts 261°
2026-05-03 22:21 53.69693 10.81853 32882 ft 405 kts 261°
2026-05-03 22:22 53.69243 10.72376 32886 ft 405 kts 261°
2026-05-03 22:22 53.68785 10.62902 32883 ft 405 kts 261°
2026-05-03 22:23 53.68322 10.53463 32883 ft 405 kts 261°
2026-05-03 22:23 53.67850 10.43996 32889 ft 405 kts 260°
2026-05-03 22:24 53.67369 10.34505 32884 ft 407 kts 260°
2026-05-03 22:24 53.66879 10.25002 32905 ft 407 kts 260°
2026-05-03 22:25 53.66383 10.15509 32906 ft 407 kts 260°
2026-05-03 22:25 53.65880 10.06032 32908 ft 406 kts 260°
2026-05-03 22:26 53.65368 9.96539 32910 ft 407 kts 260°
2026-05-03 22:26 53.64849 9.87056 32912 ft 406 kts 259°
2026-05-03 22:27 53.64323 9.77577 32907 ft 406 kts 259°
2026-05-03 22:27 53.63790 9.68114 32905 ft 406 kts 259°
2026-05-03 22:28 53.63248 9.58634 32907 ft 406 kts 259°
2026-05-03 22:28 53.62699 9.49155 32904 ft 406 kts 259°
2026-05-03 22:29 53.62143 9.39688 32895 ft 407 kts 259°
2026-05-03 22:29 53.61578 9.30199 32892 ft 407 kts 259°
2026-05-03 22:30 53.61007 9.20731 32895 ft 407 kts 259°
2026-05-03 22:30 53.60427 9.11247 32891 ft 407 kts 259°
2026-05-03 22:31 53.59840 9.01763 32898 ft 407 kts 259°
2026-05-03 22:31 53.59245 8.92288 32893 ft 407 kts 258°
2026-05-03 22:32 53.58644 8.82836 32925 ft 407 kts 258°
2026-05-03 22:32 53.58035 8.73376 32888 ft 406 kts 258°
2026-05-03 22:33 53.57419 8.63930 32892 ft 406 kts 258°
2026-05-03 22:33 53.56796 8.54488 32890 ft 406 kts 258°
2026-05-03 22:34 53.56171 8.45121 32891 ft 406 kts 258°
2026-05-03 22:34 53.55534 8.35708 32899 ft 406 kts 258°
2026-05-03 22:35 53.54885 8.26220 32926 ft 406 kts 258°
2026-05-03 22:35 53.54234 8.16815 32908 ft 405 kts 258°
2026-05-03 22:36 53.53580 8.07464 32910 ft 406 kts 258°
2026-05-03 22:36 53.52914 7.98063 32910 ft 405 kts 258°
2026-05-03 22:37 53.52240 7.88659 32913 ft 405 kts 258°
2026-05-03 22:37 53.51559 7.79261 32911 ft 405 kts 258°
2026-05-03 22:38 53.50872 7.69875 32911 ft 404 kts 258°
2026-05-03 22:38 53.50181 7.60546 32911 ft 404 kts 258°
2026-05-03 22:39 53.49481 7.51192 32913 ft 404 kts 258°
2026-05-03 22:39 53.48771 7.41815 32913 ft 404 kts 258°
2026-05-03 22:40 53.48056 7.32457 32913 ft 404 kts 258°
2026-05-03 22:40 53.47334 7.23117 32945 ft 404 kts 258°
2026-05-03 22:41 53.46605 7.13773 32923 ft 404 kts 259°
2026-05-03 22:41 53.45866 7.04408 32916 ft 405 kts 259°
2026-05-03 22:42 53.45120 6.95056 32916 ft 405 kts 259°
2026-05-03 22:42 53.44368 6.85706 32914 ft 404 kts 259°
2026-05-03 22:43 53.43615 6.76441 32908 ft 404 kts 258°
2026-05-03 22:43 53.42847 6.67095 32925 ft 406 kts 259°
2026-05-03 22:44 53.42065 6.57673 32918 ft 409 kts 259°
2026-05-03 22:44 53.41275 6.48239 32914 ft 408 kts 259°
2026-05-03 22:45 53.40480 6.38833 32914 ft 408 kts 259°
2026-05-03 22:45 53.39677 6.29428 32915 ft 409 kts 259°
2026-05-03 22:46 53.38865 6.20011 32921 ft 409 kts 259°
2026-05-03 22:46 53.38045 6.10584 32931 ft 410 kts 258°
2026-05-03 22:47 53.37215 6.01140 32930 ft 410 kts 258°
2026-05-03 22:47 53.36380 5.91728 32933 ft 410 kts 258°
2026-05-03 22:48 53.35534 5.82276 32936 ft 410 kts 258°
2026-05-03 22:48 53.34683 5.72847 32936 ft 410 kts 258°
2026-05-03 22:49 53.33823 5.63417 32962 ft 410 kts 258°
2026-05-03 22:49 53.32960 5.54030 32929 ft 409 kts 258°
2026-05-03 22:50 53.32089 5.44636 32935 ft 409 kts 258°
2026-05-03 22:50 53.31209 5.35235 32935 ft 409 kts 258°
2026-05-03 22:51 53.30322 5.25847 32935 ft 409 kts 258°
2026-05-03 22:51 53.29427 5.16450 32938 ft 409 kts 258°
2026-05-03 22:52 53.28532 5.07139 32954 ft 410 kts 257°
2026-05-03 22:52 53.27621 4.97734 32943 ft 410 kts 257°
2026-05-03 22:53 53.26695 4.88261 32938 ft 410 kts 257°
2026-05-03 22:53 53.25775 4.78928 32939 ft 410 kts 257°
2026-05-03 22:54 53.24843 4.69557 32941 ft 410 kts 257°
2026-05-03 22:54 53.23901 4.60159 32934 ft 410 kts 257°
2026-05-03 22:55 53.22953 4.50776 32934 ft 410 kts 257°
2026-05-03 22:55 53.21997 4.41388 32930 ft 410 kts 257°
2026-05-03 22:56 53.21034 4.32010 32933 ft 410 kts 257°
2026-05-03 22:56 53.20065 4.22660 32926 ft 410 kts 257°
2026-05-03 22:57 53.19086 4.13276 32928 ft 410 kts 256°
2026-05-03 22:57 53.18102 4.03909 32927 ft 411 kts 256°
2026-05-03 22:58 53.17107 3.94492 32930 ft 412 kts 256°
2026-05-03 22:58 53.16109 3.85114 32926 ft 412 kts 256°
2026-05-03 22:59 53.15100 3.75709 32928 ft 412 kts 256°
2026-05-03 22:59 53.14084 3.66309 32937 ft 412 kts 256°
2026-05-03 23:00 53.13061 3.56916 32932 ft 412 kts 256°
2026-05-03 23:00 53.12029 3.47505 32934 ft 414 kts 256°
2026-05-03 23:01 53.10991 3.38104 32907 ft 414 kts 256°
2026-05-03 23:01 53.10281 3.28581 32886 ft 420 kts 270°
2026-05-03 23:02 53.10920 3.18920 32711 ft 423 kts 272°
2026-05-03 23:02 53.11139 3.15652 32539 ft 421 kts 272°
2026-05-03 23:02 53.11469 3.10817 32341 ft 421 kts 272°
2026-05-03 23:02 53.11909 3.04424 32774 ft 421 kts 272°
2026-05-03 23:03 53.12241 2.99581 32915 ft 423 kts 272°
2026-05-03 23:03 53.12799 2.91397 32921 ft 425 kts 272°
2026-05-03 23:04 53.13457 2.81635 32925 ft 424 kts 272°
2026-05-03 23:04 53.14106 2.71876 32925 ft 424 kts 272°
2026-05-03 23:05 53.14746 2.62140 32922 ft 424 kts 272°
2026-05-03 23:05 53.15380 2.52373 32935 ft 424 kts 272°
2026-05-03 23:06 53.16007 2.42577 32929 ft 426 kts 272°
2026-05-03 23:06 53.16624 2.32826 32925 ft 425 kts 272°
2026-05-03 23:07 53.17235 2.23020 32925 ft 426 kts 272°
2026-05-03 23:07 53.17838 2.13232 32923 ft 426 kts 272°
2026-05-03 23:08 53.18434 2.03410 32941 ft 425 kts 272°
2026-05-03 23:08 53.19022 1.93589 32928 ft 426 kts 272°
2026-05-03 23:09 53.19602 1.83749 32928 ft 426 kts 272°
2026-05-03 23:09 53.20172 1.73965 32930 ft 417 kts 272°
2026-05-03 23:09 53.20445 1.69239 32922 ft 402 kts 272°
2026-05-03 23:10 53.20709 1.64625 32934 ft 398 kts 272°
2026-05-03 23:10 53.21228 1.55462 32929 ft 396 kts 271°
2026-05-03 23:11 53.21738 1.46311 32939 ft 397 kts 272°
2026-05-03 23:11 53.22242 1.37160 32934 ft 397 kts 272°
2026-05-03 23:12 53.22739 1.27988 32932 ft 397 kts 272°
2026-05-03 23:12 53.23226 1.18877 32939 ft 397 kts 271°
2026-05-03 23:13 53.23709 1.09707 32946 ft 396 kts 271°
2026-05-03 23:13 53.24185 1.00534 32947 ft 396 kts 272°
2026-05-03 23:13 53.24420 0.95976 32289 ft 399 kts 272°
2026-05-03 23:14 53.24656 0.91329 31442 ft 405 kts 272°
2026-05-03 23:14 53.24894 0.86615 30650 ft 408 kts 272°
2026-05-03 23:14 53.25130 0.81912 29853 ft 405 kts 272°
2026-05-03 23:14 53.25359 0.77303 29530 ft 387 kts 272°
2026-05-03 23:15 53.25573 0.72976 29574 ft 364 kts 272°
2026-05-03 23:15 53.25776 0.68833 29086 ft 354 kts 272°
2026-05-03 23:15 53.25973 0.64789 28597 ft 346 kts 272°
2026-05-03 23:15 53.26165 0.60818 28117 ft 339 kts 272°
2026-05-03 23:16 53.26352 0.56908 27646 ft 337 kts 272°
2026-05-03 23:16 53.26537 0.53035 27187 ft 335 kts 272°
2026-05-03 23:16 53.26720 0.49163 26731 ft 333 kts 272°
2026-05-03 23:16 53.26901 0.45308 26290 ft 332 kts 272°
2026-05-03 23:17 53.27080 0.41477 25838 ft 331 kts 272°
2026-05-03 23:17 53.27257 0.37659 25405 ft 328 kts 272°
2026-05-03 23:17 53.27432 0.33851 24745 ft 331 kts 273°
2026-05-03 23:17 53.27610 0.29978 23893 ft 338 kts 273°
2026-05-03 23:18 53.27790 0.26021 22871 ft 346 kts 273°
2026-05-03 23:18 53.27977 0.21906 21460 ft 364 kts 273°
2026-05-03 23:18 53.28170 0.17629 20209 ft 375 kts 273°
2026-05-03 23:18 53.28365 0.13252 18996 ft 383 kts 273°
2026-05-03 23:19 53.28563 0.08791 18154 ft 381 kts 273°
2026-05-03 23:19 53.28779 0.04511 18033 ft 358 kts 278°
2026-05-03 23:19 53.29555 0.00695 17965 ft 338 kts 296°
2026-05-03 23:19 53.30566 -0.02701 17925 ft 316 kts 294°
2026-05-03 23:20 53.31494 -0.05896 17905 ft 295 kts 294°
2026-05-03 23:20 53.32366 -0.08874 17767 ft 279 kts 294°
2026-05-03 23:20 53.33211 -0.11768 17351 ft 272 kts 294°
2026-05-03 23:20 53.34032 -0.14584 16903 ft 268 kts 294°
2026-05-03 23:21 53.34841 -0.17364 16457 ft 263 kts 294°
2026-05-03 23:21 53.35637 -0.20100 16018 ft 260 kts 294°
2026-05-03 23:21 53.36421 -0.22801 15568 ft 256 kts 294°
2026-05-03 23:21 53.37191 -0.25455 15120 ft 254 kts 294°
2026-05-03 23:22 53.38703 -0.30676 14261 ft 248 kts 294°
2026-05-03 23:22 53.39451 -0.33264 13841 ft 245 kts 294°
2026-05-03 23:22 53.40188 -0.35818 13377 ft 242 kts 294°
2026-05-03 23:23 53.40917 -0.38345 12912 ft 240 kts 294°
2026-05-03 23:23 53.41637 -0.40844 12452 ft 237 kts 294°
2026-05-03 23:23 53.42352 -0.43327 12013 ft 235 kts 294°
2026-05-03 23:23 53.43056 -0.45778 11590 ft 232 kts 294°
2026-05-03 23:24 53.43748 -0.48184 11313 ft 225 kts 294°
2026-05-03 23:24 53.44426 -0.50546 11279 ft 225 kts 294°
2026-05-03 23:24 53.45107 -0.52923 11282 ft 226 kts 294°
2026-05-03 23:24 53.45786 -0.55294 11293 ft 226 kts 294°
2026-05-03 23:25 53.46468 -0.57679 11278 ft 226 kts 294°
2026-05-03 23:25 53.47147 -0.60054 11280 ft 226 kts 294°
2026-05-03 23:25 53.47830 -0.62446 11021 ft 227 kts 294°
2026-05-03 23:25 53.48509 -0.64828 10597 ft 227 kts 294°
2026-05-03 23:26 53.49188 -0.67211 10182 ft 224 kts 294°
2026-05-03 23:26 53.49852 -0.69545 9987 ft 220 kts 294°
2026-05-03 23:26 53.50513 -0.71870 9962 ft 221 kts 294°
2026-05-03 23:26 53.51175 -0.74201 9974 ft 222 kts 294°
2026-05-03 23:27 53.51840 -0.76544 9980 ft 222 kts 294°
2026-05-03 23:27 53.52504 -0.78883 9955 ft 223 kts 294°
2026-05-03 23:27 53.53171 -0.81237 9603 ft 223 kts 294°
2026-05-03 23:27 53.53828 -0.83558 9146 ft 223 kts 293°
2026-05-03 23:28 53.54487 -0.85887 8905 ft 208 kts 293°
2026-05-03 23:28 53.55086 -0.88004 8611 ft 193 kts 293°
2026-05-03 23:28 53.55646 -0.89987 8211 ft 183 kts 293°
2026-05-03 23:28 53.56185 -0.91893 7685 ft 181 kts 293°
2026-05-03 23:29 53.56719 -0.93790 7253 ft 176 kts 293°
2026-05-03 23:29 53.57235 -0.95624 6803 ft 173 kts 293°
2026-05-03 23:29 53.57746 -0.97436 6358 ft 169 kts 293°
2026-05-03 23:29 53.58238 -0.99182 5995 ft 160 kts 294°
2026-05-03 23:30 53.58706 -1.00853 5922 ft 158 kts 293°
2026-05-03 23:30 53.59176 -1.02526 5980 ft 159 kts 293°
2026-05-03 23:30 53.59648 -1.04209 5993 ft 160 kts 294°
2026-05-03 23:30 53.60128 -1.05919 5994 ft 166 kts 295°
2026-05-03 23:31 53.60636 -1.07733 6066 ft 176 kts 294°
2026-05-03 23:31 53.61252 -1.09564 5911 ft 182 kts 301°
2026-05-03 23:31 53.61910 -1.11368 5536 ft 179 kts 301°
2026-05-03 23:31 53.62557 -1.13156 5131 ft 178 kts 301°
2026-05-03 23:32 53.63189 -1.14916 4703 ft 178 kts 302°
2026-05-03 23:32 53.63835 -1.16714 4310 ft 174 kts 303°
2026-05-03 23:32 53.64436 -1.18408 3921 ft 167 kts 303°
2026-05-03 23:32 53.65035 -1.20098 3484 ft 164 kts 305°
2026-05-03 23:33 53.65622 -1.21740 3103 ft 163 kts 306°
2026-05-03 23:33 53.66196 -1.23359 2977 ft 164 kts 304°
2026-05-03 23:33 53.66779 -1.25010 2982 ft 164 kts 304°
2026-05-03 23:33 53.67361 -1.26660 2987 ft 164 kts 304°
2026-05-03 23:34 53.67947 -1.28320 2991 ft 164 kts 303°
2026-05-03 23:34 53.68505 -1.29919 2969 ft 155 kts 304°
2026-05-03 23:34 53.69059 -1.31485 2976 ft 156 kts 305°
2026-05-03 23:34 53.69615 -1.33063 2931 ft 158 kts 305°
2026-05-03 23:35 53.70173 -1.34645 2562 ft 157 kts 306°
2026-05-03 23:35 53.70725 -1.36212 2150 ft 154 kts 306°
2026-05-03 23:35 53.71267 -1.37751 1978 ft 153 kts 306°
2026-05-03 23:35 53.71808 -1.39292 1949 ft 154 kts 306°
2026-05-03 23:36 53.72355 -1.40849 1957 ft 154 kts 306°
2026-05-03 23:36 53.72904 -1.42409 1995 ft 154 kts 305°
2026-05-03 23:36 53.73448 -1.43963 2025 ft 153 kts 305°
2026-05-03 23:36 53.73991 -1.45509 2080 ft 153 kts 306°
2026-05-03 23:37 53.74534 -1.47055 2065 ft 153 kts 306°
2026-05-03 23:37 53.75161 -1.48481 2005 ft 149 kts 320°
2026-05-03 23:37 53.75921 -1.49662 1992 ft 148 kts 322°
2026-05-03 23:37 53.76677 -1.50860 2018 ft 149 kts 321°
2026-05-03 23:38 53.77438 -1.52042 1999 ft 149 kts 323°
2026-05-03 23:38 53.78206 -1.53210 1995 ft 148 kts 322°
2026-05-03 23:38 53.78972 -1.54379 1997 ft 149 kts 323°
2026-05-03 23:38 53.79738 -1.55550 1993 ft 148 kts 323°
2026-05-03 23:39 53.80505 -1.56725 1956 ft 148 kts 322°
2026-05-03 23:39 53.81265 -1.57895 1989 ft 150 kts 322°
2026-05-03 23:39 53.82048 -1.59091 2029 ft 151 kts 322°
2026-05-03 23:39 53.82880 -1.60343 2067 ft 167 kts 321°
2026-05-03 23:40 53.83631 -1.61593 1794 ft 151 kts 318°
2026-05-03 23:40 53.84406 -1.62778 1212 ft 150 kts 321°
2026-05-03 23:40 53.85133 -1.63877 890 ft 136 kts 320°
2026-05-03 23:40 53.85858 -1.64946 727 ft 134 kts 317°
2026-05-03 23:41 53.86491 -1.65903 665 ft 110 kts 317°
2026-05-03 23:41 53.87006 -1.66697 674 ft 91 kts 318°
2026-05-03 23:41 53.87313 -1.67058 685 ft 23 kts 15°
2026-05-03 23:41 53.87364 -1.67009 680 ft 0 kts 25°
2026-05-03 23:42 53.87382 -1.67012 684 ft 3 kts 334°
2026-05-03 23:42 53.87386 -1.67015 684 ft 0 kts 332°
2026-05-03 23:45 53.87391 -1.67023 685 ft 7 kts 316°
2026-05-03 23:45 53.87398 -1.67106 688 ft 8 kts 265°
2026-05-03 23:45 53.87382 -1.67187 682 ft 6 kts 212°
2026-05-03 23:46 53.87322 -1.67183 684 ft 12 kts 151°
2026-05-03 23:46 53.87257 -1.67085 682 ft 12 kts 138°
2026-05-03 23:46 53.87227 -1.67038 680 ft 4 kts 136°
2026-05-03 23:46 53.87168 -1.66944 681 ft 19 kts 137°
2026-05-03 23:47 53.87045 -1.66755 676 ft 21 kts 137°
2026-05-03 23:47 53.86991 -1.66669 673 ft 1 kts 136°
2026-05-03 23:47 53.86964 -1.66609 673 ft 3 kts 106°
2026-05-03 23:47 53.86980 -1.66546 674 ft 9 kts 55°
2026-05-03 23:48 53.86990 -1.66417 676 ft 14 kts 116°
2026-05-03 23:48 53.86929 -1.66264 677 ft 17 kts 135°
2026-05-03 23:48 53.86845 -1.66127 677 ft 17 kts 136°
2026-05-03 23:48 53.86816 -1.65991 673 ft 7 kts 97°
2026-05-03 23:49 53.86812 -1.65885 670 ft 7 kts 92°
2026-05-03 23:49 53.86812 -1.65867 670 ft 3 kts 91°
2026-05-03 23:49 53.86813 -1.65786 670 ft 8 kts 83°
2026-05-03 23:49 53.86816 -1.65741 669 ft 1 kts 86°
2026-05-03 23:50 53.86834 -1.65707 668 ft 7 kts 28°
2026-05-03 23:50 53.86865 -1.65693 668 ft 0 kts
2026-05-03 23:50 53.86866 -1.65693 668 ft 0 kts